Regional Weather Roundup
Issued by NWS

Home | Current Version | Previous Version | Text Only | Print | Product List | Glossary Off
Versions: 1 2 3 4 5 6 7 8 9 10 11 12 13 14 15 16 17 18 19 20 21 22 23 24 25 26 27 28 29 30 31 32 33 34 35 36 37 38 39 40 41 42 43 44 45 46 47 48 49 50

000
ASUS43 KOAX 250610
RWRNE

WEATHER ROUNDUP FOR NEBRASKA
NATIONAL WEATHER SERVICE OMAHA NE
100 AM CDT THU AUG 25 2016

NOTES: SATELLITE DATA IS BEING USED TO AUGMENT CLOUD COVER ABOVE
       12000 FEET.
       "FAIR" INDICATES FEW OR NO CLOUDS BELOW 12,000 FEET WITH NO
       SIGNIFICANT WEATHER AND/OR OBSTRUCTIONS TO VISIBILITY.

  * THESE STATIONS DO NOT REPORT WEATHER SUCH AS RAIN...SNOW OR FOG.

NEZ001>004-019>022-054>056-250700-
NEBRASKA PANHANDLE

CITY           SKY/WX    TMP DP  RH WIND       PRES   REMARKS
SCOTTSBLUFF    CLOUDY    55  49  80 S7        30.22S
6HR MIN TEMP:  55; 6HR MAX TEMP:  71; 6HR PCP: TRACE;

ALLIANCE       CLEAR     53  49  86 E6        30.21F
6HR MIN TEMP:  52; 6HR MAX TEMP:  70;

CHADRON        CLOUDY    58  53  84 E6        30.21R
6HR MIN TEMP:  57; 6HR MAX TEMP:  75; 6HR PCP:  0.16;

KIMBALL        CLOUDY    52  44  74 S5        30.24F
SIDNEY         CLEAR     50  41  71 S7        30.23S
6HR MIN TEMP:  50; 6HR MAX TEMP:  69;

$$

NEZ057>060-069>072-079>082-250700-
SOUTHWEST NEBRASKA

CITY           SKY/WX    TMP DP  RH WIND       PRES   REMARKS
NORTH PLATTE   PTCLDY    57  50  77 SE3       30.18S
6HR MIN TEMP:  56; 6HR MAX TEMP:  75;

IMPERIAL       CLOUDY    59  50  72 NW3       30.20S
6HR MIN TEMP:  59; 6HR MAX TEMP:  74;

LEXINGTON      CLOUDY    59  52  77 CALM      30.15F
MCCOOK         PTCLDY    58  52  80 NW8       30.16S
6HR MIN TEMP:  57; 6HR MAX TEMP:  71;

OGALLALA       CLOUDY    52  47  83 CALM      30.20S
$$

NEZ005>010-023>029-035>040-094-250700-
NORTH CENTRAL NEBRASKA

CITY           SKY/WX    TMP DP  RH WIND       PRES   REMARKS
VALENTINE      PTCLDY    53  49  86 W8        30.16
6HR MIN TEMP:  53; 6HR MAX TEMP:  69;

AINSWORTH      CLOUDY    59  55  85 CALM      30.16F
BROKEN BOW     CLOUDY    57  54  89 CALM      30.16S
6HR MIN TEMP:  55; 6HR MAX TEMP:  72;

O`NEILL        MOCLDY    60  53  76 W6        30.14S
ORD            CLOUDY    59  55  87 NW3       30.13F
6HR MIN TEMP:  58; 6HR MAX TEMP:  72; 6HR PCP: TRACE;

THEDFORD       CLOUDY    57  52  81 CALM      30.20S
$$

NEZ041-046>049-061>064-073>077-083>087-250700-
SOUTH CENTRAL NEBRASKA

CITY           SKY/WX    TMP DP  RH WIND       PRES   REMARKS
GRAND ISLAND   PTCLDY    62  56  80 N6        30.12S
6HR MIN TEMP:  59; 6HR MAX TEMP:  72;

AURORA         PTCLDY    61  59  94 N6        30.11S
HASTINGS       PTCLDY    62  56  80 NE3       30.13R
6HR MIN TEMP:  57; 6HR MAX TEMP:  71;

HEBRON         CLEAR     59  58  97 CALM      30.08F
HOLDREGE       CLOUDY    61  56  83 N5        30.13S
KEARNEY *      CLOUDY    63  55  77 N7        30.13R
YORK           CLOUDY    57  55  94 N5        30.10S
$$

NEZ011>018-030>034-042>045-250700-
NORTHEAST NEBRASKA

CITY           SKY/WX    TMP DP  RH WIND       PRES   REMARKS
NORFOLK        CLOUDY    58  55  90 W6        30.10S
6HR MIN TEMP:  57; 6HR MAX TEMP:  72;

ALBION         CLOUDY    58  55  91 NW5       30.13R
BLAIR          CLEAR     62  58  86 N7        30.07F
FREMONT        CLEAR     59  57  95 CALM      30.09S
TEKAMAH        CLEAR     57  55  93 CALM      30.07S
6HR MIN TEMP:  57; 6HR MAX TEMP:  70;

WAYNE          PTCLDY    55  55  97 CALM      30.11S
$$

NEZ050>053-065>068-078-088>093-250700-
SOUTHEAST NEBRASKA

CITY           SKY/WX    TMP DP  RH WIND       PRES   REMARKS
LINCOLN        PTCLDY    59  57  93 N5        30.09R
6HR MIN TEMP:  59; 6HR MAX TEMP:  70; 6HR PCP: TRACE;

OMAHA EPPLEY   PTCLDY    63  60  90 N6        30.06
6HR MIN TEMP:  62; 6HR MAX TEMP:  72; 6HR PCP: TRACE;

BEATRICE       CLEAR     59  58  97 CALM      30.08S
FALLS CITY     CLOUDY    68  67  96 CALM      30.04S
6HR MIN TEMP:  68; 6HR MAX TEMP:  73; 6HR PCP:  0.53;

NEBRASKA CITY  CLOUDY    64  64 100 N3        30.07S
PLATTSMOUTH    PTCLDY    64  62  93 NW3       30.06S
$$

NEZ044-045-051>053-067-250700-
OMAHA AREA

CITY           SKY/WX    TMP DP  RH WIND       PRES   REMARKS
OMAHA EPPLEY   PTCLDY    63  60  90 N6        30.06
6HR MIN TEMP:  62; 6HR MAX TEMP:  72; 6HR PCP: TRACE;

BLAIR          CLEAR     62  58  86 N7        30.07F
FREMONT        CLEAR     59  57  95 CALM      30.09S
MILLARD        CLEAR     64  60  87 NW5       30.06S
OFFUTT AFB     CLEAR     63  60  92 W5        30.06R
PLATTSMOUTH    PTCLDY    64  62  93 NW3       30.06S
WAHOO          FAIR      59  57  94 NW5       30.08S
$$




USA.gov is the U.S. government's official web portal to all federal, state and local government web resources and services.